Location: Newark
(7.0858°N, 171.3717°E)
Time: 05:57:29
(UTC+00:00)

Courier 1B - Pass Details

Date: 27 November 2020
Orbit: 962 x 1209 km, 28.3° (Epoch: 20 January)

Event Time Altitude Azimuth Distance (km) Brightness Sun altitude
Rises 05:59:46 0° 213° (SSW) 3,642 11.5 2.6°
Reaches altitude 10° 06:03:08 10° 196° (SSW) 2,685 10.4 1.9°
Maximum altitude 06:07:47 21° 150° (SSE) 2,030 9.1 0.8°
Drops below altitude 10° 06:12:27 10° 104° (ESE) 2,708 9.4 -0.3°
Sets 06:15:51 0° 88° (E) 3,681 9.9 -1.1°
